Torna al catalogo

FENGYUN 1C DEB

AttivoSSO
NORAD 31293·DEBRIS·🇨🇳 China

Lanciato May 10, 1999 da Taiyuan Satellite Launch Center

Loading…

Prossimi Passaggi (prossime 24 ore)

TLE

In scadenzaSource: Space-Track

Epoca: Sep 10, 2026, 06:40 UTC

1 31293U 99025BPB 26253.27805352  .00000065  00000-0  37762-4 0  9993
2 31293  98.4243 257.7412 0126723 161.3983 199.1895 14.30917137691273

Traccia FENGYUN 1C DEB in tempo reale con AllMySat

Download on the App Store